• En España
  • Lista de países
  • Para 7 días
  • Temperatura del agua
  • Mapa Satelital
  • El tiempo en el mapa
  • Informadores
  • user-avatar
    Iniciar sesión

    Tiempo cada hora Canberra

    Hoy, 23 Septiembre, Sábado

    Tiempo Temperatura Precipitaciones Viento Presión Humedad
    00:00 +13°C° 0 mm 1 mps 705 mmHg 52%
    01:00 +12°C° 0 mm 1 mps 704 mmHg 51%
    02:00 +12°C° 0 mm 1 mps 704 mmHg 50%
    03:00 +12°C° 0 mm 1 mps 703 mmHg 49%
    04:00 +12°C° 0 mm 1 mps 703 mmHg 43%
    05:00 +13°C° 0 mm 1 mps 703 mmHg 43%
    06:00 +13°C° 0 mm 1 mps 703 mmHg 44%
    07:00 +14°C° 0 mm 1 mps 703 mmHg 45%
    08:00 +17°C° 0 mm 2 mps 703 mmHg 40%
    09:00 +21°C° 0 mm 4 mps 703 mmHg 34%
    10:00 +23°C° 0 mm 4 mps 703 mmHg 27%
    11:00 +26°C° 0 mm 5 mps 702 mmHg 27%
    12:00 +27°C° 0 mm 6 mps 702 mmHg 28%
    13:00 +28°C° 0 mm 6 mps 701 mmHg 29%
    14:00 +28°C° 0 mm 6 mps 700 mmHg 31%
    15:00 +28°C° 0 mm 6 mps 700 mmHg 32%
    16:00 +28°C° 0 mm 5 mps 699 mmHg 34%
    17:00 +27°C° 0 mm 5 mps 699 mmHg 33%
    18:00 +26°C° 0 mm 4 mps 698 mmHg 33%
    19:00 +25°C° 0 mm 4 mps 698 mmHg 32%
    20:00 +23°C° 0 mm 4 mps 698 mmHg 33%
    21:00 +24°C° 0 mm 3 mps 698 mmHg 34%
    22:00 +22°C° 0 mm 3 mps 698 mmHg 35%
    23:00 +20°C° 0 mm 3 mps 698 mmHg 43%

    Mañana, 24 Septiembre, Domingo

    Tiempo Temperatura Precipitaciones Viento Presión Humedad
    00:00 +18°C° 0 mm 3 mps 699 mmHg 52%
    01:00 +16°C° 0 mm 3 mps 699 mmHg 60%
    02:00 +14°C° 0 mm 3 mps 699 mmHg 63%
    03:00 +13°C° 0 mm 3 mps 699 mmHg 65%
    04:00 +12°C° 0 mm 3 mps 700 mmHg 68%
    05:00 +12°C° 0 mm 3 mps 700 mmHg 68%
    06:00 +11°C° 0 mm 3 mps 700 mmHg 69%
    07:00 +11°C° 0 mm 3 mps 700 mmHg 69%
    08:00 +13°C° 0 mm 4 mps 700 mmHg 59%
    09:00 +15°C° 0 mm 6 mps 701 mmHg 49%
    10:00 +17°C° 0 mm 7 mps 701 mmHg 40%
    11:00 +17°C° 0 mm 8 mps 701 mmHg 38%
    12:00 +18°C° 0 mm 8 mps 701 mmHg 37%
    13:00 +19°C° 0 mm 9 mps 700 mmHg 36%
    14:00 +20°C° 0 mm 8 mps 700 mmHg 37%
    15:00 +18°C° 0 mm 7 mps 700 mmHg 38%
    16:00 +18°C° 0 mm 7 mps 699 mmHg 39%
    17:00 +17°C° 0 mm 6 mps 700 mmHg 42%
    18:00 +15°C° 0 mm 5 mps 700 mmHg 44%
    19:00 +13°C° 0 mm 4 mps 700 mmHg 47%
    20:00 +13°C° 0 mm 4 mps 700 mmHg 48%
    21:00 +12°C° 0 mm 4 mps 701 mmHg 50%
    22:00 +11°C° 0 mm 4 mps 701 mmHg 51%
    23:00 +11°C° 0 mm 4 mps 701 mmHg 54%

    Pasado mañana, 25 Septiembre, Lunes

    Tiempo Temperatura Precipitaciones Viento Presión Humedad
    00:00 +10°C° 0 mm 4 mps 701 mmHg 57%
    01:00 +8°C° 0 mm 4 mps 701 mmHg 60%
    02:00 +8°C° 0 mm 4 mps 702 mmHg 61%
    03:00 +7°C° 0 mm 5 mps 702 mmHg 63%
    04:00 +7°C° 0 mm 5 mps 702 mmHg 64%
    05:00 +7°C° 0 mm 5 mps 702 mmHg 66%
    06:00 +7°C° 0 mm 5 mps 702 mmHg 67%
    07:00 +7°C° 0 mm 5 mps 703 mmHg 69%
    08:00 +8°C° 0 mm 5 mps 703 mmHg 63%
    09:00 +10°C° 0 mm 6 mps 703 mmHg 58%
    10:00 +13°C° 0 mm 6 mps 704 mmHg 52%
    11:00 +12°C° 0 mm 7 mps 704 mmHg 50%
    12:00 +14°C° 0 mm 7 mps 704 mmHg 47%
    13:00 +15°C° 0 mm 7 mps 704 mmHg 45%
    14:00 +14°C° 0 mm 7 mps 704 mmHg 48%
    15:00 +14°C° 0 mm 6 mps 704 mmHg 50%
    16:00 +14°C° 0 mm 6 mps 704 mmHg 53%
    17:00 +12°C° 0 mm 5 mps 705 mmHg 59%
    18:00 +11°C° 0 mm 4 mps 705 mmHg 66%
    19:00 +9°C° 0 mm 2 mps 705 mmHg 73%
    20:00 +8°C° 0 mm 2 mps 706 mmHg 75%
    21:00 +8°C° 0 mm 2 mps 706 mmHg 78%
    22:00 +7°C° 0 mm 2 mps 707 mmHg 81%
    23:00 +7°C° 0 mm 2 mps 707 mmHg 82%

    26 Septiembre, Martes

    Tiempo Temperatura Precipitaciones Viento Presión Humedad
    00:00 +6°C° 0 mm 2 mps 707 mmHg 83%
    01:00 +6°C° 0 mm 2 mps 707 mmHg 84%
    02:00 +7°C° 0 mm 1 mps 707 mmHg 86%
    03:00 +6°C° 0 mm 1 mps 707 mmHg 87%
    04:00 +6°C° 0 mm 1 mps 707 mmHg 89%
    05:00 +6°C° 0 mm 1 mps 707 mmHg 85%
    06:00 +7°C° 0 mm 1 mps 708 mmHg 82%
    07:00 +7°C° 0 mm 0 mps 708 mmHg 78%
    08:00 +11°C° 0 mm 1 mps 708 mmHg 65%
    09:00 +14°C° 0 mm 1 mps 709 mmHg 52%
    10:00 +17°C° 0 mm 2 mps 709 mmHg 39%
    11:00 +18°C° 0 mm 2 mps 708 mmHg 37%
    12:00 +19°C° 0 mm 3 mps 708 mmHg 34%
    13:00 +20°C° 0 mm 3 mps 708 mmHg 32%
    14:00 +20°C° 0 mm 3 mps 707 mmHg 35%
    15:00 +20°C° 0 mm 3 mps 707 mmHg 37%
    16:00 +19°C° 0 mm 3 mps 706 mmHg 40%
    17:00 +17°C° 0 mm 2 mps 706 mmHg 51%
    18:00 +14°C° 0 mm 1 mps 706 mmHg 63%
    19:00 +11°C° 0 mm 1 mps 706 mmHg 75%
    20:00 +10°C° 0 mm 1 mps 706 mmHg 78%
    21:00 +10°C° 0 mm 1 mps 706 mmHg 82%
    22:00 +9°C° 0 mm 1 mps 706 mmHg 85%
    23:00 +9°C° 0 mm 1 mps 705 mmHg 88%

    27 Septiembre, Miércoles

    Tiempo Temperatura Precipitaciones Viento Presión Humedad
    00:00 +8°C° 0 mm 2 mps 705 mmHg 90%
    01:00 +8°C° 0 mm 2 mps 704 mmHg 92%
    02:00 +9°C° 0 mm 1 mps 703 mmHg 91%
    03:00 +9°C° 0 mm 1 mps 702 mmHg 90%
    04:00 +9°C° 0 mm 1 mps 702 mmHg 89%
    05:00 +10°C° 0 mm 1 mps 702 mmHg 85%
    06:00 +11°C° 0 mm 1 mps 702 mmHg 82%
    07:00 +11°C° 0 mm 1 mps 702 mmHg 78%
    08:00 +13°C° 0,2 mm 2 mps 702 mmHg 76%
    09:00 +13°C° 0,2 mm 4 mps 702 mmHg 73%
    10:00 +15°C° 0,2 mm 5 mps 702 mmHg 70%
    11:00 +15°C° 0,1 mm 6 mps 702 mmHg 65%
    12:00 +15°C° 0,1 mm 7 mps 701 mmHg 61%
    13:00 +15°C° 0,1 mm 8 mps 701 mmHg 56%
    14:00 +15°C° 0 mm 8 mps 701 mmHg 53%
    15:00 +16°C° 0 mm 8 mps 701 mmHg 50%
    16:00 +16°C° 0 mm 7 mps 701 mmHg 47%
    17:00 +15°C° 0 mm 7 mps 702 mmHg 49%
    18:00 +15°C° 0 mm 6 mps 702 mmHg 51%
    19:00 +14°C° 0 mm 5 mps 703 mmHg 53%
    20:00 +14°C° 0 mm 5 mps 703 mmHg 55%
    21:00 +13°C° 0 mm 5 mps 704 mmHg 58%
    22:00 +12°C° 0 mm 4 mps 704 mmHg 61%
    23:00 +12°C° 0 mm 4 mps 704 mmHg 61%

    28 Septiembre, Jueves

    Tiempo Temperatura Precipitaciones Viento Presión Humedad
    00:00 +11°C° 0 mm 4 mps 704 mmHg 61%
    01:00 +11°C° 0 mm 4 mps 704 mmHg 61%
    02:00 +10°C° 0 mm 4 mps 705 mmHg 63%
    03:00 +10°C° 0 mm 3 mps 705 mmHg 65%
    04:00 +9°C° 0 mm 3 mps 705 mmHg 67%
    05:00 +9°C° 0 mm 3 mps 706 mmHg 68%
    06:00 +9°C° 0 mm 3 mps 706 mmHg 69%
    07:00 +9°C° 0 mm 3 mps 707 mmHg 69%
    08:00 +11°C° 0 mm 3 mps 707 mmHg 60%
    09:00 +13°C° 0 mm 4 mps 708 mmHg 51%
    10:00 +15°C° 0 mm 5 mps 708 mmHg 42%
    11:00 +16°C° 0 mm 5 mps 708 mmHg 40%
    12:00 +17°C° 0 mm 5 mps 708 mmHg 38%
    13:00 +19°C° 0 mm 5 mps 707 mmHg 37%
    14:00 +17°C° 0 mm 5 mps 707 mmHg 38%
    15:00 +17°C° 0 mm 5 mps 707 mmHg 40%
    16:00 +18°C° 0 mm 4 mps 707 mmHg 42%
    17:00 +14°C° 0 mm 4 mps 707 mmHg 50%
    18:00 +12°C° 0 mm 3 mps 708 mmHg 59%
    19:00 +10°C° 0 mm 2 mps 708 mmHg 67%
    20:00 +9°C° 0 mm 2 mps 708 mmHg 71%
    21:00 +8°C° 0 mm 2 mps 708 mmHg 76%
    22:00 +8°C° 0 mm 1 mps 709 mmHg 80%
    23:00 +7°C° 0 mm 1 mps 709 mmHg 81%
    Mostrar más